[[{"header":{"parameterUnit":"m.s-1","parameterCategory":1,"la1":30.2991,"la2":30.254,"lo1":-89.0895,"lo2":-89.0444,"dy":0.0017,"dx":0.0017,"nx":28,"ny":28,"refTime":"2024-03-05T03:00:00:Z","depth":0,"parameterNumber":2,"parameterNumberName":"U-component_of_WINDS"},"data":[0,0,0,0,0,0,0,0,0,0,0,0,0,0,0,0,0,0,0,0,0,0,0,0,0,0,0,0,0,0,0,0,0,0,0,0,0,0,0,0,0,0,0,0,0,0,0,0,0,0,0,0,0,0,0,0,0,0,-0.8556,-0.8556,0,-0.8525,-0.8525,-0.8524,-0.8456,-0.8455,-0.8454,-0.8452,-0.8423,-0.8424,-0.8424,0,0,0,0,0,0,0,0,0,0,0,0,0,-0.8559,-0.8559,-0.8556,-0.8556,-0.8555,-0.8525,-0.8525,-0.8524,-0.8457,-0.8455,-0.8453,-0.8452,-0.8423,-0.8424,-0.8424,0,0,0,0,0,0,0,0,0,0,0,0,0,-0.8546,-0.8559,-0.8556,-0.8518,-0.8514,-0.8525,-0.8525,-0.8524,-0.8457,-0.8455,-0.8453,-0.8451,-0.8423,-0.8424,-0.8424,-0.8471,0,0,-0.8427,-0.8427,0,0,0,0,0,0,0,0,-0.8547,-0.8546,-0.8524,-0.8521,-0.8516,-0.8492,-0.8515,-0.8506,-0.8458,-0.8479,-0.8452,-0.845,-0.8448,-0.8447,-0.8445,-0.847,-0.8468,-0.8427,-0.8427,-0.8428,-0.8428,0,0,0,0,0,0,0,-0.8548,-0.8547,-0.8544,-0.8524,-0.8519,-0.8503,-0.8499,-0.8513,-0.8476,-0.8477,-0.8472,-0.8469,-0.8446,-0.8445,-0.8444,-0.8468,-0.8427,-0.8427,-0.8428,-0.8428,-0.8529,-0.8531,0,0,0,0,0,0,-0.8554,-0.8548,-0.8545,-0.8543,-0.8527,-0.8505,-0.85,-0.8502,-0.8475,-0.8469,-0.8471,-0.8466,-0.8445,-0.8443,-0.8443,-0.8496,-0.8428,-0.8428,-0.8429,-0.8527,-0.8529,-0.8532,0,0,0,0,0,0,-0.8554,-0.8554,-0.8546,-0.8544,-0.8542,-0.8507,-0.851,-0.8503,-0.8502,-0.8471,-0.8464,-0.8477,-0.8443,-0.8442,-0.8464,-0.8494,-0.8429,-0.8429,-0.8524,-0.8528,-0.8531,-0.8602,0,0,0,0,0,0,-0.8555,-0.8555,-0.8572,-0.8545,-0.8542,-0.8567,-0.8512,-0.8504,-0.8503,-0.8497,-0.8474,-0.8469,-0.8441,-0.8464,-0.8465,-0.8494,-0.843,-0.8521,-0.8526,-0.853,-0.8597,-0.8607,-0.8616,0,0,0,0,0,-0.8555,-0.8593,-0.8573,-0.8573,-0.8562,-0.8569,-0.8568,-0.8534,-0.8506,-0.8523,-0.8503,-0.847,-0.849,-0.8466,-0.8468,-0.8497,-0.8519,-0.8524,-0.8529,-0.8592,-0.8605,-0.8616,0,0,0,0,0,0,-0.8625,-0.8589,-0.8566,-0.8597,-0.8587,-0.8558,-0.8578,-0.8549,-0.8547,-0.8541,-0.8501,-0.8496,-0.8525,-0.8513,-0.8487,-0.8541,-0.85,-0.8505,-0.8547,-0.8559,-0.8569,-0.8571,-0.8431,0,0,0,0,0,-0.8644,-0.8652,-0.862,-0.8651,-0.8647,-0.8614,-0.8615,-0.859,-0.8579,-0.8574,-0.8556,-0.8546,-0.855,-0.8554,-0.8556,-0.8595,-0.8589,-0.8616,-0.8625,-0.8634,-0.8639,-0.8658,-0.867,-0.8548,-0.8548,-0.8548,0,0,-0.8684,-0.8665,-0.8672,-0.8664,-0.8653,-0.8663,-0.861,-0.8623,-0.863,-0.8576,-0.8596,-0.8582,-0.8569,-0.86,-0.8612,-0.8591,-0.8671,-0.864,-0.8647,-0.8647,-0.8665,-0.8676,-0.8687,-0.8551,-0.8551,-0.855,0,0,-0.876,-0.8747,-0.877,-0.8761,-0.8744,-0.8722,-0.8728,-0.8704,-0.8692,-0.8711,-0.8671,-0.868,-0.8688,-0.868,-0.8677,-0.8751,-0.8721,-0.8753,-0.8804,-0.8824,-0.8834,-0.8842,-0.8869,-0.8879,-0.8759,-0.8759,-0.8759,0,-0.8811,-0.8824,-0.8787,-0.8802,-0.8799,-0.8751,-0.8775,-0.8767,-0.8753,-0.8753,-0.8729,-0.8739,-0.8726,-0.8755,-0.8773,-0.8772,-0.8778,-0.8756,-0.8835,-0.8843,-0.885,-0.8875,-0.8885,-0.8763,-0.8762,-0.8762,-0.8762,0,-0.8888,-0.8897,-0.8918,-0.8905,-0.8905,-0.8925,-0.8892,-0.8896,-0.8872,-0.8853,-0.8873,-0.8856,-0.8854,-0.8859,-0.8836,-0.8885,-0.8872,-0.8842,-0.88,-0.8867,-0.8889,-0.8899,-0.8769,-0.8767,-0.8766,-0.8765,0,0,-0.9007,-0.8973,-0.8982,-0.8975,-0.8954,-0.8961,-0.8979,-0.8976,-0.8981,-0.8974,-0.8988,-0.8996,-0.8968,-0.8965,-0.8941,-0.8958,-0.9018,-0.8926,-0.8925,-0.8944,-0.9071,-0.9094,-0.9105,-0.8998,-0.8999,-0.9001,-0.9072,0,-0.9079,-0.9107,-0.9074,-0.9109,-0.9117,-0.9071,-0.9087,-0.9076,-0.9058,-0.9064,-0.9044,-0.9051,-0.9014,-0.9012,-0.9027,-0.9008,-0.9043,-0.9002,-0.9011,-0.9012,-0.9016,-0.9117,-0.9141,-0.9209,-0.9081,-0.9082,-0.9083,0,-0.9166,-0.9162,-0.9198,-0.9174,-0.9176,-0.9191,-0.9186,-0.9191,-0.9179,-0.9165,-0.9161,-0.9131,-0.9148,-0.9107,-0.9129,-0.9102,-0.9104,-0.9095,-0.9097,-0.9097,-0.9052,-0.912,-0.923,-0.924,-0.9097,-0.9096,-0.9095,0,-0.925,-0.9253,-0.9275,-0.9271,-0.9244,-0.9256,-0.9245,-0.923,-0.9231,-0.9227,-0.9227,-0.9226,-0.9225,-0.9225,-0.9195,-0.9168,-0.9222,-0.9178,-0.9211,-0.9212,-0.9225,-0.9224,-0.9337,-0.9226,-0.9226,-0.9226,-0.9226,0,-0.9334,-0.9358,-0.9312,-0.9326,-0.9351,-0.9314,-0.934,-0.9325,-0.9312,-0.9322,-0.9283,-0.9293,-0.9254,-0.9261,-0.9238,-0.926,-0.926,-0.925,-0.9244,-0.9254,-0.9255,-0.9254,-0.9249,-0.9228,-0.9228,-0.9227,-0.9227,0,-0.9432,-0.9402,-0.9423,-0.9396,-0.939,-0.941,-0.9387,-0.9399,-0.9379,-0.9392,-0.9393,-0.9362,-0.9368,-0.9338,-0.9339,-0.9324,-0.9358,-0.9344,-0.9362,-0.9358,-0.9392,-0.939,-0.9509,-0.9523,-0.9403,-0.9404,-0.9405,0,-0.9487,-0.9504,-0.9479,-0.9482,-0.9474,-0.948,-0.948,-0.9445,-0.9447,-0.9434,-0.9447,-0.945,-0.9449,-0.9461,-0.9439,-0.944,-0.9425,-0.9467,-0.9425,-0.9434,-0.9426,-0.9425,-0.9427,-0.9476,-0.9477,-0.9478,-0.9479,0,-0.9588,-0.9573,-0.9574,-0.9571,-0.9572,-0.9568,-0.9561,-0.9567,-0.9528,-0.9533,-0.9538,-0.9538,-0.9538,-0.9541,-0.9537,-0.9527,-0.9498,-0.9493,-0.95,-0.9511,-0.9521,-0.9516,-0.9386,-0.949,-0.9489,-0.9488,-0.9488,-0.9487,-0.9666,-0.9679,-0.9664,-0.9667,-0.9658,-0.9652,-0.9662,-0.9643,-0.9646,-0.9643,-0.9622,-0.9632,-0.9619,-0.961,-0.9603,-0.9611,-0.9591,-0.9602,-0.9605,-0.9608,-0.9614,-0.952,-0.961,-0.9609,-0.9609,-0.9609,-0.9609,0,-0.9765,-0.9753,-0.9756,-0.9748,-0.9751,-0.9721,-0.9712,-0.9717,-0.9725,-0.9715,-0.9716,-0.9722,-0.9725,-0.9703,-0.9703,-0.9713,-0.97,-0.9715,-0.9714,-0.9712,-0.9632,-0.9625,-0.9726,-0.9726,-0.9726,-0.9726,-0.9726,-0.9726,-0.9817,-0.9838,-0.9821,-0.9837,-0.9824,-0.9832,-0.983,-0.9825,-0.9817,-0.9825,-0.9827,-0.9813,-0.9798,-0.9797,-0.9799,-0.9792,-0.9795,-0.9814,-0.9804,-0.9729,-0.9718,-0.9707,-0.97,-0.9815,-0.9815,-0.9883,-0.9884,-0.9884]},{"header":{"parameterUnit":"m.s-1","parameterCategory":1,"la1":30.2991,"la2":30.254,"lo1":-89.0895,"lo2":-89.0444,"dy":0.0017,"dx":0.0017,"nx":28,"ny":28,"refTime":"2024-03-05T03:00:00:Z","depth":0,"parameterNumber":3,"parameterNumberName":"V-component_of_WINDS"},"data":[0,0,0,0,0,0,0,0,0,0,0,0,0,0,0,0,0,0,0,0,0,0,0,0,0,0,0,0,0,0,0,0,0,0,0,0,0,0,0,0,0,0,0,0,0,0,0,0,0,0,0,0,0,0,0,0,0,0,-0.5893,-0.5893,0,-0.5865,-0.5864,-0.5864,-0.5836,-0.5835,-0.5835,-0.5835,-0.5804,-0.5804,-0.5803,0,0,0,0,0,0,0,0,0,0,0,0,0,-0.5923,-0.5923,-0.5894,-0.5893,-0.5893,-0.5865,-0.5864,-0.5864,-0.5836,-0.5835,-0.5835,-0.5835,-0.5804,-0.5804,-0.5803,0,0,0,0,0,0,0,0,0,0,0,0,0,-0.5904,-0.5923,-0.5894,-0.5875,-0.5874,-0.5865,-0.5864,-0.5864,-0.5836,-0.5835,-0.5835,-0.5834,-0.5805,-0.5804,-0.5803,-0.581,0,0,-0.5801,-0.5801,0,0,0,0,0,0,0,0,-0.5905,-0.5903,-0.5878,-0.5877,-0.5875,-0.5853,-0.5863,-0.5846,-0.5836,-0.585,-0.5835,-0.5834,-0.5821,-0.5819,-0.5815,-0.5808,-0.5807,-0.5801,-0.5801,-0.58,-0.58,0,0,0,0,0,0,0,-0.5906,-0.5904,-0.5882,-0.5878,-0.5876,-0.5868,-0.5865,-0.586,-0.5839,-0.5849,-0.5847,-0.5844,-0.582,-0.5815,-0.5814,-0.5807,-0.5801,-0.58,-0.58,-0.58,-0.5803,-0.5804,0,0,0,0,0,0,-0.5911,-0.5905,-0.5883,-0.5881,-0.5889,-0.5868,-0.5864,-0.5861,-0.5839,-0.5835,-0.5844,-0.5843,-0.5817,-0.5815,-0.5812,-0.5818,-0.58,-0.58,-0.5799,-0.5803,-0.5803,-0.5804,0,0,0,0,0,0,-0.5911,-0.5909,-0.5884,-0.5893,-0.5889,-0.5868,-0.5864,-0.586,-0.5856,-0.5835,-0.5831,-0.5844,-0.5816,-0.5813,-0.581,-0.5817,-0.5799,-0.5799,-0.5802,-0.5803,-0.5804,-0.583,0,0,0,0,0,0,-0.5912,-0.5909,-0.5912,-0.5893,-0.5889,-0.5883,-0.5865,-0.586,-0.5855,-0.5852,-0.5834,-0.583,-0.5816,-0.5812,-0.581,-0.5816,-0.5798,-0.5801,-0.5802,-0.5803,-0.5829,-0.5832,-0.5835,0,0,0,0,0,-0.5913,-0.5921,-0.5912,-0.591,-0.5891,-0.5884,-0.5881,-0.5864,-0.5856,-0.5858,-0.5844,-0.5831,-0.5816,-0.5812,-0.5809,-0.5815,-0.5801,-0.5802,-0.5803,-0.5827,-0.5831,-0.5834,0,0,0,0,0,0,-0.5941,-0.5918,-0.5908,-0.591,-0.5899,-0.5879,-0.5881,-0.5869,-0.586,-0.5858,-0.5838,-0.5834,-0.5833,-0.5823,-0.5819,-0.582,-0.5807,-0.5807,-0.5826,-0.5829,-0.5832,-0.5834,-0.5797,0,0,0,0,0,-0.5947,-0.5943,-0.5923,-0.5926,-0.5921,-0.5902,-0.5898,-0.5886,-0.5874,-0.5869,-0.5856,-0.5844,-0.5837,-0.5832,-0.5825,-0.5827,-0.5822,-0.583,-0.5833,-0.5835,-0.5836,-0.5836,-0.5839,-0.5808,-0.5808,-0.5808,0,0,-0.596,-0.5947,-0.5946,-0.5931,-0.5921,-0.5917,-0.5899,-0.5895,-0.5891,-0.5868,-0.5865,-0.5855,-0.584,-0.584,-0.5839,-0.5832,-0.5843,-0.5837,-0.5839,-0.5838,-0.5837,-0.584,-0.5843,-0.5808,-0.5808,-0.5808,0,0,-0.5981,-0.5971,-0.5972,-0.5963,-0.5948,-0.5935,-0.5936,-0.5917,-0.591,-0.5906,-0.5888,-0.5883,-0.5872,-0.5862,-0.5855,-0.5872,-0.5859,-0.587,-0.5885,-0.5885,-0.5888,-0.589,-0.5895,-0.5898,-0.5871,-0.5871,-0.5871,0,-0.5999,-0.5992,-0.5974,-0.5972,-0.5966,-0.5945,-0.5945,-0.5937,-0.592,-0.5916,-0.5909,-0.5893,-0.5882,-0.5879,-0.5883,-0.5878,-0.5877,-0.5872,-0.5889,-0.5891,-0.5893,-0.5898,-0.59,-0.5872,-0.5872,-0.5872,-0.5872,0,-0.6014,-0.601,-0.6013,-0.5997,-0.5992,-0.5991,-0.5972,-0.5968,-0.5956,-0.5944,-0.594,-0.5926,-0.5915,-0.5913,-0.5901,-0.5908,-0.5904,-0.5893,-0.588,-0.5897,-0.5902,-0.5903,-0.5874,-0.5874,-0.5874,-0.5873,0,0,-0.6053,-0.6027,-0.6028,-0.6021,-0.6003,-0.5999,-0.5997,-0.5986,-0.5983,-0.5972,-0.5969,-0.5959,-0.5949,-0.5941,-0.5928,-0.5929,-0.5942,-0.5917,-0.5917,-0.5922,-0.5948,-0.5956,-0.5959,-0.5933,-0.5934,-0.5934,-0.5949,0,-0.6071,-0.6066,-0.6049,-0.6049,-0.6045,-0.6024,-0.6022,-0.6011,-0.5999,-0.5993,-0.598,-0.5973,-0.596,-0.5955,-0.5955,-0.5941,-0.5947,-0.5939,-0.593,-0.593,-0.5935,-0.5961,-0.597,-0.5985,-0.595,-0.5951,-0.5951,0,-0.6091,-0.6082,-0.6081,-0.6063,-0.606,-0.6059,-0.6047,-0.6042,-0.6028,-0.602,-0.6011,-0.5997,-0.5992,-0.598,-0.5974,-0.5969,-0.5964,-0.5956,-0.5956,-0.5955,-0.5942,-0.596,-0.5989,-0.5991,-0.5953,-0.5953,-0.5953,0,-0.6119,-0.6106,-0.6104,-0.6098,-0.6077,-0.6076,-0.6067,-0.6053,-0.6047,-0.6037,-0.6033,-0.6022,-0.6016,-0.6008,-0.599,-0.5983,-0.5986,-0.5972,-0.5978,-0.5978,-0.598,-0.598,-0.6008,-0.5977,-0.5977,-0.5977,-0.5977,0,-0.6141,-0.6141,-0.6116,-0.6115,-0.6114,-0.6095,-0.6095,-0.6084,-0.6071,-0.6067,-0.6049,-0.6045,-0.6022,-0.6016,-0.6002,-0.5999,-0.5996,-0.5989,-0.5985,-0.5991,-0.5991,-0.5987,-0.5986,-0.5977,-0.5977,-0.5977,-0.5977,0,-0.6171,-0.6155,-0.6151,-0.6131,-0.6126,-0.6127,-0.6109,-0.6107,-0.6094,-0.6089,-0.6087,-0.6066,-0.6057,-0.6039,-0.6026,-0.6016,-0.6016,-0.601,-0.6021,-0.6019,-0.6026,-0.6025,-0.6053,-0.6055,-0.6022,-0.6022,-0.6023,0,-0.6187,-0.6186,-0.6166,-0.6162,-0.6154,-0.6148,-0.6142,-0.6123,-0.6117,-0.6101,-0.6101,-0.609,-0.6081,-0.6068,-0.6052,-0.6041,-0.6034,-0.6045,-0.6033,-0.6038,-0.6034,-0.6035,-0.6034,-0.6047,-0.6048,-0.6048,-0.6048,0,-0.6215,-0.6207,-0.6199,-0.6188,-0.6182,-0.6172,-0.6162,-0.616,-0.6138,-0.6132,-0.6123,-0.6116,-0.6102,-0.6092,-0.6079,-0.6069,-0.6055,-0.6052,-0.6053,-0.6059,-0.6065,-0.6061,-0.6028,-0.6052,-0.6052,-0.6051,-0.6051,-0.6051,-0.6238,-0.6237,-0.6223,-0.6215,-0.6205,-0.6195,-0.6192,-0.6179,-0.6171,-0.6158,-0.6147,-0.6139,-0.6124,-0.6105,-0.6096,-0.6089,-0.6082,-0.6083,-0.6084,-0.6084,-0.6086,-0.6066,-0.6086,-0.6086,-0.6086,-0.6086,-0.6086,0,-0.6266,-0.6255,-0.6248,-0.6234,-0.6228,-0.6215,-0.6203,-0.6198,-0.6191,-0.6179,-0.617,-0.616,-0.615,-0.6132,-0.6121,-0.6119,-0.6112,-0.6116,-0.6116,-0.6114,-0.6093,-0.6094,-0.6122,-0.6122,-0.6122,-0.6122,-0.6122,-0.6122,-0.6279,-0.6276,-0.6266,-0.6258,-0.6247,-0.624,-0.6233,-0.6224,-0.6214,-0.6204,-0.6195,-0.6184,-0.6169,-0.6157,-0.6147,-0.6142,-0.6138,-0.6145,-0.6138,-0.6119,-0.6115,-0.6112,-0.6112,-0.6144,-0.6144,-0.6159,-0.6159,-0.6159]}]]